CDT,Max TemperatureF,Mean TemperatureF,Min TemperatureF,Max Dew PointF,MeanDew PointF,Min DewpointF,Max Humidity, Mean Humidity, Min Humidity, Max Sea Level PressureIn, Mean Sea Level PressureIn, Min Sea Level PressureIn, Max VisibilityMiles, Mean VisibilityMiles, Min VisibilityMiles, Max Wind SpeedMPH, Mean Wind SpeedMPH, Max Gust SpeedMPH,PrecipitationIn, CloudCover, Events, WindDirDegrees
2013-10-1,64,54,44,48,38,32,100,63,30,29.86,29.68,29.51,10,10,10,36,16,47,0.00,0,,255
2013-10-2,62,48,35,43,37,32,87,69,37,30.00,29.94,29.85,10,10,10,16,9,22,0.00,2,Rain,237
2013-10-3,57,44,32,45,36,30,100,75,41,30.23,30.08,29.98,10,10,10,17,8,23,0.00,2,,360
2013-10-4,41,38,35,37,33,30,93,80,70,30.33,30.27,30.21,10,10,10,25,17,33,0.00,3,,30
2013-10-5,50,42,32,37,32,30,100,78,54,30.20,30.05,29.97,10,10,8,29,20,36,0.01,5,Rain,25
2013-10-6,68,48,28,37,32,27,100,61,26,29.97,29.89,29.82,10,10,5,24,11,29,0.00,0,,317
2013-10-7,62,45,28,41,34,25,93,63,32,29.95,29.86,29.68,10,10,10,17,7,23,0.00,0,,195
2013-10-8,71,58,46,46,40,32,87,63,27,29.78,29.64,29.56,10,10,5,16,11,16,0.00,0,,258
2013-10-9,68,52,37,41,34,32,81,56,26,30.02,29.95,29.79,10,9,2,10,5,16,0.00,0,,305
2013-10-10,68,52,37,50,42,32,88,68,40,30.01,29.84,29.69,10,10,5,18,8,22,0.00,0,,70
2013-10-11,66,58,51,57,53,48,94,87,64,29.70,29.50,29.24,10,9,1,23,11,36,0.04,4,Rain-Thunderstorm,122
2013-10-12,53,43,33,52,39,32,100,78,47,30.14,29.73,29.25,10,10,2,33,17,44,0.00,4,Rain,301
2013-10-13,53,40,26,34,29,25,100,71,38,30.34,30.28,30.14,10,10,10,10,6,,0.00,0,,253
2013-10-14,42,37,32,41,37,27,100,90,80,30.34,30.27,30.20,10,7,3,20,7,24,0.71,7,Rain,74
2013-10-15,44,36,28,39,34,28,100,85,61,30.21,30.11,29.99,10,10,7,18,14,26,0.04,3,Rain,1
2013-10-16,57,44,30,43,35,28,100,79,55,29.98,29.85,29.78,10,10,10,14,9,20,0.00,1,,270
2013-10-17,48,40,32,37,31,25,87,72,43,29.97,29.93,29.86,10,10,10,17,11,21,0.00,4,,322
2013-10-18,44,35,26,36,30,25,93,84,61,29.91,29.84,29.71,10,10,9,16,9,21,0.00,4,Rain,280
2013-10-19,42,36,30,32,29,25,100,83,49,29.76,29.71,29.66,10,9,2,17,10,23,0.02,7,Snow,296
2013-10-20,35,30,26,32,27,19,100,85,60,29.94,29.80,29.64,10,7,2,24,11,30,0.65,7,Rain-Snow,4
2013-10-21,35,30,24,25,21,18,80,72,60,29.98,29.94,29.92,10,10,10,18,12,25,0.00,7,,336
2013-10-22,35,30,26,28,24,19,87,75,60,30.07,30.03,29.98,10,10,10,15,7,,0.00,8,Rain,326
2013-10-23,37,30,24,32,27,21,100,85,65,30.14,30.07,30.01,10,10,2,16,8,21,0.16,7,Rain-Snow,317
2013-10-24,39,32,24,32,28,25,100,84,61,30.25,30.21,30.14,10,10,10,14,10,,0.00,6,,294
2013-10-25,55,40,26,37,29,23,93,70,41,30.15,29.88,29.71,10,10,10,33,17,43,0.00,2,,271
2013-10-26,41,36,32,28,25,23,75,65,53,30.16,30.02,29.74,10,10,10,20,15,29,0.00,5,,289
2013-10-27,39,31,23,30,24,16,87,70,56,30.39,29.99,29.69,10,10,10,26,16,33,0.00,3,,6
2013-10-28,30,24,17,18,14,10,86,69,44,30.57,30.50,30.40,10,10,10,17,10,23,0.00,4,,50
2013-10-29,37,24,12,18,15,9,86,67,41,30.45,30.22,30.06,10,10,10,13,7,,0.00,1,,195
2013-10-30,41,30,19,32,26,16,93,76,61,30.06,29.85,29.63,10,10,10,15,9,,0.00,6,,214
2013-10-31,42,33,24,32,28,23,100,86,65,29.61,29.49,29.43,10,9,3,12,8,,0.00,1,,275